Location: Columbia
(38.9520°N, 92.3340°W)
Time: 22:30:51
(UTC-06:00)

Iridium 52 - Visible Passes

Search period start: 22 January 2017 00:00
Search period end: 01 February 2017 00:00
Orbit: 776 x 779 km, 86.4° (Epoch: 22 January)

Date Brightness Start Highest point End Pass type
(mag) Time Alt. Az. Time Alt. Az. Time Alt. Az.
22 Jan 7.1 18:26:54 10° SE 18:30:47 22° E 18:31:55 20° ENE visible
22 Jan 7.2 20:06:19 10° SSW 20:11:11 40° W 20:12:34 33° NW visible
23 Jan 7.1 06:37:08 10° N 06:42:12 49° E 06:47:14 10° SSE visible
23 Jan 7.7 17:56:04 10° E 17:57:37 11° ENE 17:59:09 10° ENE visible
23 Jan 6.1 19:32:22 10° S 19:37:34 75° W 19:42:48 10° N visible
24 Jan 8.2 06:04:07 10° NNE 06:08:31 27° E 06:12:53 10° SE visible
24 Jan 6.0 18:59:00 10° SSE 19:04:05 58° E 19:09:12 10° N visible
24 Jan 8.7 20:42:15 10° WSW 20:45:12 15° WNW 20:48:09 10° NW visible
25 Jan 8.9 05:31:51 10° NE 05:34:42 15° ENE 05:37:31 10° ESE visible
25 Jan 6.7 18:26:12 10° SE 18:30:43 31° E 18:35:16 10° NNE visible
25 Jan 7.9 20:06:59 10° SW 20:11:23 27° W 20:15:49 10° NNW visible
26 Jan 6.4 06:37:07 10° N 06:42:20 73° E 06:47:32 10° S visible
26 Jan 7.4 17:54:14 10° ESE 17:57:29 17° E 18:00:44 10° NE visible
26 Jan 6.8 19:32:39 10° SSW 19:37:42 51° W 19:42:48 10° N visible
27 Jan 7.6 06:03:51 10° NNE 06:08:44 38° E 06:13:34 10° SSE visible
27 Jan 5.9 18:58:57 10° S 19:04:09 85° E 19:09:24 10° N visible
28 Jan 8.6 05:31:04 10° NNE 05:34:59 21° ENE 05:38:54 10° SE visible
28 Jan 6.3 18:25:47 10° SSE 18:30:43 45° E 18:35:40 10° NNE visible
28 Jan 8.5 20:07:59 10° WSW 20:11:39 19° WNW 20:15:21 10° NNW visible
29 Jan 9.2 04:59:35 10° NE 05:01:06 11° ENE 05:02:38 10° E visible
29 Jan 6.0 06:37:12 10° N 06:42:26 77° W 06:47:37 10° S visible
29 Jan 7.0 17:53:16 10° SE 17:57:24 24° E 18:01:33 10° NNE visible
29 Jan 7.6 19:33:09 10° SSW 19:37:53 35° W 19:42:39 10° NNW visible
30 Jan 6.8 06:03:45 10° N 06:08:54 57° E 06:14:00 10° SSE visible
30 Jan 6.4 18:59:06 10° SSW 19:04:15 66° W 19:09:28 10° N visible
31 Jan 8.0 05:30:39 10° NNE 05:35:14 30° E 05:39:48 10° SE visible
31 Jan 6.0 18:25:36 10° S 18:30:45 67° E 18:35:56 10° N visible
31 Jan 9.0 20:09:33 10° WSW 20:11:58 13° WNW 20:14:23 10° NW visible
